#timestamp,LO_Frequency,Hit,StdDev 
1618025095.8,286047033.0,P
1618025115.7,286047032.4,P
1618025135.5,286047034.3,P
1618025155.3,286047033.9,Y
1618025175.2,286047000.2,P
1618025195.0,286047004.4,N
1618025195.9,286047004.4,N
1618025215.7,286047001.9,N
1618025235.6,286047002.4,N
1618025255.4,286047002.1,N
1618025275.3,286047002.0,N
1618025295.1,286047002.3,N
1618025296.0,286047002.3,N
1618025315.8,286047003.6,N
1618025335.7,286047003.6,N
1618025355.5,286047005.8,N
1618025375.3,286047005.9,N
1618025395.2,286047003.5,N
1618025415.0,286047002.9,N
1618025415.9,286047002.9,N
1618025435.8,286047005.4,N
1618025455.6,286047004.6,N
1618025475.4,286047004.9,N
1618025495.3,286047008.8,N
1618025515.1,286047006.6,N
1618025535.8,286047009.0,N
1618025555.7,286047006.1,N
1618025575.5,286047009.1,N
1618025595.4,286047008.4,N
1618025615.2,286047009.1,N
1618025635.0,286047006.9,N
1618025635.9,286047006.9,N
1618025655.8,286047008.7,N
1618025675.6,286047008.5,N
1618025695.4,286047006.4,N
1618025715.3,286047007.5,Y
1618025735.1,286046999.9,P
1618025755.9,286047001.7,N
1618025775.7,286047003.5,N
1618025795.5,286047003.1,N
1618025815.4,286047005.4,N
1618025835.2,286047005.2,N
1618025855.0,286047004.4,N
1618025856.0,286047004.4,N
1618025875.8,286047003.8,N
1618025895.6,286047001.4,N
1618025915.5,286047000.0,N
1618025935.3,286047002.4,N
1618025955.1,286047000.1,N
1618025975.9,286047001.6,N
1618025995.7,286047001.6,N
1618026015.6,286047002.7,N
1618026035.4,286047000.4,N
1618026055.2,286047000.1,N
1618026075.1,286047002.3,N
1618026076.0,286047002.3,N
1618026095.8,286047002.6,N
1618026115.7,286047001.9,N
1618026135.5,286047002.1,N
1618026155.3,286046999.7,N
1618026175.2,286047000.5,N
1618026195.0,286047000.6,N
1618026195.9,286047000.6,N
1618026215.7,286047002.1,N
1618026235.6,286047002.3,N
1618026255.4,286047001.5,N
1618026275.3,286047001.9,N
1618026295.1,286047002.6,N
1618026296.0,286047002.6,N
1618026315.8,286047002.7,N
1618026335.7,286047002.8,N
1618026355.5,286047000.5,N
1618026375.4,286047001.5,N
1618026395.2,286047001.5,N
1618026415.0,286047003.7,Y
1618026415.9,286047003.7,P
1618026435.8,286047001.5,N
1618026455.6,286047003.2,P
1618026475.4,286047006.0,Y
1618026495.3,286047001.9,P
1618026515.1,286047002.0,P
1618026535.9,286047001.6,P
1618026555.7,286047011.9,Y
1618026575.5,286047002.1,P
1618026595.4,286047002.1,P
1618026615.2,286047002.2,P
1618026635.1,286047004.4,Y
1618026636.0,286047004.4,P
1618026655.8,286047000.5,N
1618026675.6,286047000.8,N
1618026695.5,286046999.7,N
1618026715.3,286047000.1,N
1618026735.1,286047002.2,N
1618026755.9,286047002.7,N
1618026775.7,286047000.1,N
1618026795.6,286047001.9,N
1618026815.4,286047003.4,N
1618026835.2,286047005.8,Y
1618026855.1,286047003.2,P
1618026856.0,286047003.2,P
1618026875.8,286047003.6,P
1618026895.7,286047002.9,Y
1618026915.5,286047002.1,P
1618026935.3,286047004.1,P
1618026955.2,286047003.9,P
1618026975.9,286047004.1,Y
1618026995.7,286047000.4,P
1618027015.6,286047002.0,N
1618027035.4,286047002.2,N
1618027055.3,286047001.9,N
1618027075.1,286047002.3,N
1618027076.0,286047002.3,N
1618027095.8,286047002.1,N
1618027115.7,286047001.5,N
1618027135.5,286047002.8,Y
1618027155.3,286046998.2,P
1618027175.2,286047000.6,N
1618027195.0,286047000.0,N
1618027195.9,286047000.0,N
